Location: *
(51.1248°S, 108.4023°W)
Time: 13:06:02
(UTC+00:00)

USA 267 - Visible Passes

Search period start: 22 October 2021 00:00
Search period end: 01 November 2021 00:00
Orbit: 1101 x 1106 km, 123.0° (Epoch: 02 September)

Date Brightness Start Highest point End Pass type
(mag) Time Alt. Az. Time Alt. Az. Time Alt. Az.
22 Oct 4.5 04:37:53 10° ESE 04:40:49 21° E 04:40:49 21° E visible
22 Oct 3.1 06:20:24 10° ESE 06:27:02 73° NE 06:28:09 61° NNW visible
22 Oct 3.6 08:03:30 10° ESE 08:10:01 63° SSW 08:15:28 15° W visible
22 Oct 3.9 09:46:11 10° E 09:52:35 55° S 09:59:00 10° WSW visible
23 Oct 3.6 05:37:44 10° ESE 05:43:19 44° ENE 05:43:19 44° ENE visible
23 Oct 3.3 07:20:45 10° ESE 07:27:23 80° SSW 07:30:39 33° WNW visible
23 Oct 3.9 09:03:41 10° ESE 09:10:05 55° S 09:16:30 10° W visible
23 Oct 3.8 10:46:10 10° E 10:52:40 63° SSE 10:59:11 10° WSW visible
24 Oct 4.5 04:55:27 10° ESE 04:58:32 22° E 04:58:32 22° E visible
24 Oct 3.1 06:37:58 10° ESE 06:44:36 73° NE 06:45:52 59° NNW visible
24 Oct 3.7 08:21:03 10° ESE 08:27:34 62° SSW 08:33:11 14° W visible
24 Oct 4.0 10:03:44 10° E 10:10:08 55° S 10:16:33 10° WSW visible
25 Oct 3.6 05:55:17 10° ESE 06:01:06 45° ENE 06:01:06 45° ENE visible
25 Oct 3.3 07:38:18 10° ESE 07:44:56 80° SSW 07:48:25 31° WNW visible
25 Oct 3.9 09:21:15 10° ESE 09:27:39 55° S 09:34:03 10° W visible
25 Oct 3.8 11:03:44 10° E 11:10:13 63° SSE 11:16:45 10° WSW visible
26 Oct 4.5 05:13:00 10° ESE 05:16:21 23° E 05:16:21 23° E visible
26 Oct 3.1 06:55:31 10° ESE 07:02:09 73° NE 07:03:40 55° NNW visible
26 Oct 3.7 08:38:37 10° ESE 08:45:07 62° SSW 08:51:00 13° W visible
26 Oct 4.0 10:21:18 10° E 10:27:42 55° S 10:34:06 10° WSW visible
27 Oct 3.5 06:12:51 10° ESE 06:18:57 46° NE 06:18:57 46° NE visible
27 Oct 3.3 07:55:52 10° ESE 08:02:30 79° SSW 08:06:16 28° WNW visible
27 Oct 3.9 09:38:48 10° ESE 09:45:12 55° S 09:51:37 10° W visible
28 Oct 4.5 05:30:33 10° ESE 05:34:13 24° ENE 05:34:13 24° ENE visible
28 Oct 3.1 07:13:05 10° ESE 07:19:43 74° NE 07:21:33 50° NW visible
28 Oct 3.7 08:56:11 10° ESE 09:02:41 62° SSW 09:08:52 11° W visible
28 Oct 4.0 10:38:51 10° E 10:45:15 55° S 10:51:40 10° WSW visible
29 Oct 3.5 06:30:24 10° ESE 06:36:44 46° NE 06:36:51 46° NE visible
29 Oct 3.3 08:13:26 10° ESE 08:20:03 79° SSW 08:24:11 25° WNW visible
29 Oct 3.9 09:56:22 10° ESE 10:02:46 55° S 10:09:10 10° W visible
30 Oct 4.4 05:48:06 10° ESE 05:52:09 25° ENE 05:52:09 25° ENE visible
30 Oct 3.2 07:30:39 10° ESE 07:37:16 74° NE 07:39:29 45° NW visible
30 Oct 3.7 09:13:44 10° ESE 09:20:14 62° SSW 09:26:44 10° W visible
30 Oct 4.0 10:56:25 10° E 11:02:49 55° S 11:09:13 10° WSW visible
31 Oct 5.2 05:07:06 10° E 05:07:28 11° E 05:07:28 11° E visible
31 Oct 3.5 06:47:58 10° ESE 06:54:18 46° NE 06:54:48 46° NNE visible
31 Oct 3.3 08:31:00 10° ESE 08:37:37 79° SSW 08:42:08 22° WNW visible
31 Oct 3.9 10:13:55 10° ESE 10:20:19 55° S 10:26:44 10° W visible
